Location: �alt?
(36.5468°N, 30.2845°E)
Time: 21:44:28
(UTC+00:00)

Daily predictions for brighter satellites

Satellite Brightness Start Highest point End
(mag) Time Altitude Azimuth Time Altitude Azimuth Time Altitude Azimuth
Cosmos 2034 Rocket 4.2 17:27:33 10° N 17:33:48 84° W 17:40:05 10° S
USA 308 3.6 17:30:02 10° NNW 17:34:05 42° NE 17:38:06 10° ESE
OAO 2 Rocket 3.3 17:32:46 10° W 17:37:51 76° S 17:42:50 10° E
SAR-Lupe-1 4.1 17:37:57 10° NNE 17:41:30 58° E 17:45:00 10° S
SAR-Lupe-4 3.7 17:38:31 10° NNE 17:42:02 50° E 17:45:30 10° S
Cosmos 1825 2.8 17:39:15 10° SSE 17:42:39 34° E 17:46:05 10° NNE
Cosmos 1953 Rocket 3.9 17:38:34 10° SSE 17:42:51 48° E 17:47:12 10° NNE
Ariane Rocket 3.8 17:40:24 10° SE 17:44:59 35° ENE 17:49:34 10° N
SEDSat Delta rocket 3.8 17:43:34 10° SW 17:47:04 28° SSE 17:50:36 10° ESE
Cosmos 1869 3.4 17:43:37 10° N 17:47:25 53° E 17:51:10 10° SSE
In-Cosmos 22 Rocket 4.1 17:42:26 10° S 17:47:44 86° E 17:53:05 10° N
NOSS 3-2 (A) 4.4 17:42:27 10° NW 17:50:20 74° WSW 17:59:03 10° SSE
CSL-04 Rocket 4.4 17:46:31 10° S 17:51:54 57° WSW 17:57:14 10° NNW
Resurs 1-3 4.1 17:48:13 10° SE 17:52:21 42° ENE 17:56:30 10° N
Cosmos 405 Rocket 3.2 17:49:01 10° SSW 17:52:51 65° W 17:56:47 10° N
Cosmos 2058 3.6 17:51:48 10° SSE 17:55:35 35° E 17:59:24 10° NNE
USA 306 2.9 17:53:31 10° NW 17:57:47 74° NE 18:01:32 13° SE
Cosmos 1408 3.0 17:54:41 10° SSW 17:58:19 67° W 18:01:56 10° N
SJ-6B 2.7 17:54:52 10° S 17:58:36 84° W 18:02:20 10° NNW
NOSS 3-4 (A) 3.9 17:57:33 10° SW 18:03:15 62° NW 18:09:17 10° NNE
NOSS 3-4 (C) 3.9 17:57:39 10° SW 18:03:21 63° NW 18:09:23 10° NNE
Cosmos 1437 Rocket 2.7 18:00:23 10° N 18:04:11 64° E 18:08:04 10° SSE
SL-19 R/B 4.2 18:01:11 10° S 18:04:19 69° WSW 18:07:56 10° NNW
IRS-1A Rocket 4.3 18:04:38 10° SSE 18:10:09 69° ENE 18:15:38 10° N
Cosmos 1633 4.0 18:09:08 16° ESE 18:10:25 20° E 18:13:04 10° NE
ATLAS 2AS CENTAUR R/B 3.0 18:03:58 10° SSW 18:11:49 79° ESE 18:19:40 10° NE
Cosmos 773 Rocket 4.1 18:12:07 10° S 18:17:10 52° ESE 18:22:12 10° NNE
NOSS 3-2 (C) 4.3 18:09:57 10° NW 18:17:52 81° WSW 18:26:05 12° SSE
Cosmos 1634 Rocket 4.1 18:11:58 10° N 18:18:16 82° W 18:24:28 10° S
SPOT 3 Rocket 4.2 18:15:22 16° SE 18:19:04 39° ENE 18:23:55 10° N
RESURS DK-1 2.9 18:16:07 10° S 18:19:57 37° ESE 18:23:48 10° NE
Landsat 7 4.3 18:18:00 17° SE 18:21:20 45° ENE 18:25:52 10° N
Cosmos 1697 Rocket 3.2 18:16:03 10° N 18:21:29 45° ENE 18:25:12 19° SE
MOS 1 4.3 18:16:33 10° SSE 18:22:14 90° WSW 18:27:55 10° NNW
USA 186 4.4 18:21:36 10° SW 18:24:03 19° W 18:26:25 10° NW
Cosmos 2082 Rocket 2.2 18:20:15 10° S 18:25:42 56° ESE 18:31:13 10° NNE
Cosmos 1125 Rocket 3.9 18:20:56 10° NNW 18:26:12 64° WSW 18:31:25 10° S
ERS-2 2.4 18:23:05 10° N 18:26:42 68° WNW 18:30:18 10° SSW
Resurs 01 Rocket 1.7 18:24:29 19° SSE 18:27:34 58° ENE 18:31:56 10° N
Cosmos 1833 Rocket 3.1 18:22:23 10° SSW 18:27:58 65° WNW 18:33:36 10° NNE
Cosmos 1242 Rocket 2.4 18:27:42 10° N 18:31:17 89° WNW 18:33:35 21° S
ATLAS 3B R/B 4.1 18:27:09 10° N 18:33:01 26° NE 18:37:56 14° E
CENTAUR R/B 3.8 18:25:59 10° NW 18:34:14 56° WSW 18:42:44 11° S
NOSS 2 (A) 4.2 18:32:00 10° NW 18:34:27 60° WSW 18:34:57 45° S
USA 267 3.6 18:28:54 10° ENE 18:34:56 39° SE 18:40:58 10° SSW
EPKM 4.5 18:34:11 10° SSW 18:35:52 14° S 18:35:52 14° S
Centaur D AC-28 3.8 18:33:04 10° SW 18:38:19 49° SSE 19:04:01 10° E
ERS-1 Rocket 4.5 18:40:49 18° E 18:42:23 21° ENE 18:46:05 10° NNE
OAO 1 Rocket 4.4 18:39:05 10° WSW 18:44:25 73° S 18:47:54 22° E
Spot 2 Rocket 4.4 18:43:29 25° ESE 18:45:25 33° ENE 18:49:57 10° N
OAO 3 Copernicus 4.2 18:46:11 10° WSW 18:51:12 73° S 18:53:53 28° E
BREEZE-M R/B 3.7 18:44:45 10° SSW 18:52:19 35° SE 18:53:18 31° ESE
ARIANE 5 R/B 3.6 18:54:01 28° E 18:54:55 30° ENE 18:58:50 10° N
COSMOS 2406 4.5 18:49:39 10° SW 18:54:59 42° WNW 19:00:23 10° N
Cosmos 158 Rocket 4.4 18:55:41 34° SE 18:56:54 40° ESE 19:01:44 10° NNE
USA 307 4.1 18:53:12 10° WNW 18:57:02 33° SW 18:58:37 25° SSW
Meteor 2-3 Rocket 4.2 18:56:40 32° SE 18:58:18 39° E 19:03:32 10° NNE
Cosmos 2369 3.7 18:52:47 10° NNW 18:58:24 65° ENE 19:00:47 35° SE
Cosmos 1538 Rocket 3.9 18:56:05 21° S 18:59:35 63° ESE 19:04:44 10° NNE
Cosmos 1606 2.5 18:56:34 10° N 19:00:20 80° E 19:01:10 53° SSE
Hubble Space Telescope 2.1 18:57:43 10° WSW 19:00:25 25° SSW 19:00:25 25° SSW
Cosmos 2221 2.7 18:58:24 10° NNW 19:02:41 66° W 19:04:45 29° SSW
Cosmos 1437 4.2 19:00:28 10° NNW 19:02:52 27° W 19:03:36 23° WSW
CARTOSAT-1 4.0 19:02:49 40° ESE 19:03:33 45° ENE 19:07:40 10° N
Cosmos 2098 Rocket 2.2 19:05:41 67° WSW 19:05:47 69° W 19:08:52 10° N
Cosmos 1980 Rocket 2.4 19:02:25 10° NNW 19:07:57 56° ENE 19:09:48 39° ESE
Atlas Centaur 2 3.1 19:09:39 10° SW 19:10:47 16° SW 19:10:47 16° SW
CZ-2C R/B 3.9 19:08:35 10° N 19:13:05 68° WNW 19:16:01 21° SSW
Cosmos 1092 Rocket 4.0 19:10:48 34° SSE 19:13:26 61° E 19:19:36 10° NNE
Cosmos 2322 Rocket 4.2 19:12:37 10° NNE 19:15:26 14° NE 19:17:10 12° ENE
SPOT 5 3.2 19:16:25 39° ENE 19:16:34 40° ENE 19:20:37 10° N
SPOT 1/Viking Rocket 3.6 19:14:44 36° S 19:16:54 77° WSW 19:22:07 10° NNW
OAO 2 Rocket 3.4 19:17:36 10° W 19:22:27 51° SSW 19:22:45 51° S
BREEZE-M DEB (TANK) 3.9 19:21:15 10° NW 19:24:45 40° NE 19:29:09 22° E
Cosmos 2151 3.1 19:29:07 57° SW 19:29:51 72° W 19:34:06 10° N
Cosmos 371 Rocket 3.2 19:26:34 10° NNW 19:31:21 65° ENE 19:31:42 63° E
Cosmos 2026 Rocket 4.0 19:29:48 45° SSE 19:31:48 69° E 19:38:04 10° NNE
SEDSat Delta rocket 4.3 19:28:49 10° WSW 19:30:54 26° SW 19:30:54 26° SW
Terra 2.3 19:33:35 45° ENE 19:33:37 45° ENE 19:38:09 10° N
Cosmos 1627 Rocket 4.4 19:36:39 44° S 19:38:50 81° E 19:45:11 10° N
ISS -1.0 19:37:56 10° N 19:39:32 13° NNE 19:40:01 12° NNE
SL-16 R/B 3.3 19:36:36 10° N 19:41:29 29° ENE 19:42:12 28° ENE
Cosmos 923 Rocket 3.9 19:46:06 72° ESE 19:46:16 73° ESE 19:51:36 10° NNE
Cosmos 2292 Rocket 4.4 19:46:06 55° E 19:46:20 56° E 19:52:56 10° NNE
GP-B 3.2 19:44:54 10° N 19:49:20 71° W 19:49:21 71° W
Cosmos 1151 Rocket 4.0 19:50:00 10° N 19:53:06 38° NE 19:53:06 38° NE
Cosmos 1271 Rocket 3.6 19:51:28 10° N 19:54:22 47° N 19:54:22 47° N
Okean 3 Rocket 4.2 20:03:48 51° NNE 20:03:48 51° NNE 20:07:12 10° N
Resurs 01 Rocket 4.4 20:03:23 10° WSW 20:04:22 11° W 20:05:22 10° WNW
Cosmos 1697 Rocket 4.5 20:00:50 10° NW 20:05:03 22° W 20:06:57 19° SW
H-2A R/B 4.5 20:01:32 10° NNE 20:04:18 41° NNE 20:04:18 41° NNE
Cosmos 332 Rocket 3.9 20:02:04 10° NNW 20:06:27 71° N 20:06:27 71° N
Meteor 1-26 Rocket 4.2 20:01:44 10° NNW 20:07:41 77° W 20:08:14 70° SSW
Cosmos 2278 4.2 20:09:43 10° NW 20:15:07 47° WSW 20:15:27 46° WSW
Cosmos 1553 Rocket 3.9 20:09:12 10° N 20:15:15 69° E 20:15:15 69° E
Cosmos 1655 Rocket 4.3 20:17:14 51° ENE 20:17:14 51° ENE 20:22:58 10° NNE
USA 267 3.9 20:11:40 10° NE 20:18:00 54° NW 20:24:19 10° WSW
ERS-1 Rocket 3.8 20:20:49 40° W 20:20:52 40° W 20:25:35 10° NNW
Cosmos 2112 Rocket 4.2 20:21:46 69° N 20:21:46 69° N 20:26:26 10° NNE
Cosmos 1680 Rocket 3.7 20:23:11 68° NW 20:23:11 68° NW 20:28:15 10° NNE
ATLAS 3B R/B 2.8 20:17:07 10° NW 20:24:16 69° WSW 20:25:11 63° SSW
Cosmos 2333 Rocket 4.3 20:23:30 10° NNE 20:26:37 15° NE 20:27:27 14° ENE
Cosmos 2360 Rocket 3.4 20:25:43 10° N 20:30:27 32° NE 20:30:27 32° NE
Cosmos 1417 Rocket 4.4 20:35:30 10° N 20:41:38 84° NW 20:41:38 84° NW
S3M 4.0 20:36:43 10° N 20:42:47 75° NE 20:42:47 75° NE
USA 234 4.0 20:46:59 38° ENE 20:48:40 45° NE 20:54:50 10° NNW
Cosmos 1980 Rocket 4.2 20:47:53 10° WNW 20:51:24 17° W 20:51:34 17° W
Cosmos 2322 Rocket 2.7 20:54:31 10° NNW 20:58:58 56° NNW 20:58:58 56° NNW
Terra 4.2 21:12:28 15° W 21:12:28 15° W 21:14:29 10° NW
COSMOS 2428 4.2 21:19:41 10° N 21:24:10 28° NE 21:24:10 28° NE
SL-16 R/B 3.6 21:20:28 10° NW 21:24:03 30° WNW 21:24:03 30° WNW
Cosmos 2219 Rocket 3.4 21:22:11 10° N 21:26:26 34° NE 21:26:26 34° NE
Meteor 1-27 Rocket 4.4 21:22:29 10° NNW 21:26:39 51° NNW 21:26:39 51° NNW
BREEZE-M DEB (TANK) 4.5 21:20:05 10° WSW 21:34:54 70° NNW 21:39:17 10° NE
Cosmos 2285 Rocket 4.5 21:36:25 10° N 21:41:42 55° NNE 21:41:42 55° NNE
COSMOS 2455 3.5 21:55:35 51° NNW 21:55:35 51° NNW 22:00:31 10° NNE
ATLAS 5 CENTAUR R/B 3.9 22:00:55 10° N 22:05:55 29° NE 22:07:16 27° ENE
CZ-3B R/B 4.4 22:05:02 10° NW 22:07:16 20° NNW 22:07:16 20° NNW
Cosmos 2333 Rocket 3.3 22:05:52 10° NNW 22:09:26 40° NNW 22:09:26 40° NNW
Cosmos 2360 Rocket 4.0 22:09:43 10° NW 22:12:12 22° WNW 22:12:12 22° WNW
Cosmos 1745 Rocket 4.4 22:27:28 60° N 22:27:28 60° N 22:32:30 10° N
USA 234 4.3 22:34:19 32° WNW 22:34:19 32° WNW 22:37:54 10° NW
Cosmos 2297 Rocket 3.2 22:35:02 41° NE 22:35:02 41° NE 22:38:48 10° NNE
Cosmos 2237 Rocket 3.1 22:37:25 10° N 22:42:19 43° NE 22:42:19 43° NE
Cosmos 2227 Rocket 3.2 22:45:51 41° NE 22:45:51 41° NE 22:49:42 10° NNE
SL-16 R/B 4.1 22:46:01 23° E 22:47:53 27° ENE 22:52:53 10° N
Nadezhda 1 Rocket 4.4 22:46:06 10° NNW 22:51:20 57° NW 22:51:20 57° NW
ADEOS II 4.4 22:50:40 10° ENE 22:53:06 14° E 22:53:06 14° E
CZ-2D R/B 3.5 22:50:23 10° NNE 22:54:11 31° ENE 22:54:11 31° ENE
SL-16 R/B 4.1 23:02:27 10° N 23:06:59 24° ENE 23:09:46 17° E
COSMOS 2428 4.4 23:03:41 10° NW 23:06:09 23° NW 23:06:09 23° NW
Cosmos 2263 Rocket 4.4 23:09:50 14° E 23:09:53 14° E 23:12:49 10° ENE
Cosmos 2219 Rocket 4.2 23:06:26 10° NW 23:08:07 17° WNW 23:08:07 17° WNW
Timation 1 Rocket 4.4 23:26:56 71° N 23:26:56 71° N 23:32:19 10° NNE
Cosmos 2181 Rocket 4.0 23:20:19 10° N 23:26:32 80° ENE 23:26:32 80° ENE
Lacrosse 5 2.7 23:29:46 46° N 23:29:46 46° N 23:33:46 10° NNE
ADEOS Rocket 3.7 23:31:45 37° ESE 23:32:58 42° ENE 23:38:06 10° N
Cosmos 2219 3.9 23:33:45 47° NW 23:33:45 47° NW 23:38:45 10° N
USA 229 DEB 4.5 23:31:14 10° NW 23:36:51 42° W 23:36:51 42° W
USA 229 4.5 23:31:19 10° NW 23:36:59 42° W 23:36:59 42° W
Cosmos 2251 Rocket 3.8 23:40:52 64° NE 23:40:52 64° NE 23:45:23 10° NNE
IDEFIX/ARIANE 42P 4.2 23:38:45 10° NE 23:42:50 23° E 23:43:38 22° ESE
ATLAS 5 CENTAUR R/B 3.3 23:44:56 10° NW 23:48:42 37° WNW 23:48:42 37° WNW
AQUA 4.2 23:46:35 10° NNE 23:50:34 60° NE 23:50:34 60° NE
Cosmos 2082 3.7 23:53:12 73° NW 23:53:12 73° NW 23:58:42 10° NNE
Meteor 2-12 Rocket 4.3 23:53:23 83° S 23:53:38 90° ESE 23:59:48 10° N
Cosmos 1975 4.3 23:54:46 36° ENE 23:54:46 36° ENE 23:57:42 10° NNE
Resurs 1-4 Rocket 2.4 23:49:25 10° N 23:54:09 59° NW 23:54:09 59° NW
